Home > Weather > Wiesloch > Past weeks

Flag for Germany Past Weather in Wiesloch, Baden-Württemberg, Germany — Yesterday and Last 2 Weeks

Now
63 °F

Sunny.


Feels Like: 63 °F
Forecast: 56 / 76 °F
Wind: 3 mph from North

Location: Mannheim City

Current Time: May 26, 2016 at 10:54:35 AM

Latest Report: May 26, 2016 at 10:20 AM


Visibility: 10 mi

Pressure: 30.01 "Hg

Humidity: 68%

Dew Point: 52 °F

Location of WieslochLocation

Past Weather in Wiesloch — Graph

°F

Wiesloch Temperature Yesterday

Maximum temperature yesterday: 61 °F (at 4:20 PM)
Minimum temperature yesterday: 50 °F (at 5:50 AM)
Average temperature yesterday: 57 °F

High & Low Weather Summary for the Past Weeks

 TemperatureHumidityPressure
High81 °F (May 22, 2:50 PM)100% (May 11, 9:20 AM)30.15 "Hg (May 11, 9:20 AM)
Low45 °F (May 17, 5:50 AM)28% (May 22, 4:20 PM)29.45 "Hg (May 12, 7:50 PM)
Average60 °F67%29.90 "Hg
* Reported May 11 9:20 AM — May 26 9:20 AM, Wiesloch, Weather by CustomWeather, © 2016

Note: Actual official high and low records may vary slightly from our data, if they occured in-between our weather recording intervals... More about our weather records

Advertising

Wiesloch Weather History for the Previous 24 Hours

Scroll right to see more
 ConditionsComfort  
Time TempWeatherWind HumidityBarometerVisibility
9:20 AM
Thu, May 26
59 °FSunny.3 mph77%30.04 "Hg10 mi
8:50 AM57 °FSunny.3 mph88%30.04 "Hg10 mi
8:20 AM54 °FSunny.3 mph94%30.04 "Hg10 mi
7:50 AM52 °FPassing clouds.5 mph100%30.01 "HgN/A
7:20 AM52 °FClear.3 mph94%30.01 "Hg6 mi
6:50 AM50 °FClear.2 mph100%30.01 "Hg5 mi
11:50 PM
Wed, May 25
54 °FClear.2 mph100%30.01 "Hg10 mi
11:20 PM54 °FClear.3 mph94%30.01 "Hg10 mi
10:50 PM54 °FClear.3 mph94%30.01 "Hg10 mi
10:20 PM54 °FClear.3 mph94%30.01 "Hg10 mi
9:50 PM55 °FSunny.3 mph88%29.98 "Hg10 mi
9:20 PM57 °FSunny.3 mph77%29.98 "Hg10 mi
8:50 PM59 °FSunny.5 mph72%29.98 "Hg10 mi
8:20 PM61 °FSunny.3 mph68%29.98 "Hg10 mi
7:50 PM61 °FSunny.5 mph68%29.98 "Hg10 mi
7:20 PM61 °FPassing clouds.6 mph68%29.98 "HgN/A
6:50 PM61 °FPassing clouds.6 mph63%29.98 "HgN/A
6:20 PM61 °FPassing clouds.3 mph63%29.98 "HgN/A
5:50 PM61 °FPartly sunny.7 mph63%29.98 "HgN/A
5:20 PM61 °FBroken clouds.3 mph68%29.98 "HgN/A
4:50 PM61 °FPartly sunny.3 mph68%29.98 "HgN/A
4:20 PM61 °FPartly sunny.2 mph68%29.98 "HgN/A
3:50 PM59 °FOvercast.3 mph68%29.98 "HgN/A
3:20 PM59 °FOvercast.2 mph68%29.98 "HgN/A
2:50 PM59 °FOvercast.5 mph68%29.98 "HgN/A
2:20 PM57 °FOvercast.5 mph72%29.98 "HgN/A
1:50 PM57 °FOvercast.5 mph72%29.98 "HgN/A
1:20 PM57 °FOvercast.5 mph72%29.98 "HgN/A
12:50 PM57 °FOvercast.5 mph72%29.98 "HgN/A
12:20 PM57 °FOvercast.5 mph72%29.98 "HgN/A
11:50 AM57 °FOvercast.5 mph72%29.98 "HgN/A
11:20 AM55 °FOvercast.3 mph77%29.98 "HgN/A
10:50 AM57 °FOvercast.6 mph72%29.98 "HgN/A
10:20 AM55 °FOvercast.3 mph77%29.98 "HgN/A
Weather by CustomWeather, © 2016

See weather overviewHow to use our weather pages